Location: Recife
(8.0585°S, 34.8848°W)
Time: 05:42:56
(UTC-03:00)

Courier 1B - Pass Details

Date: 15 April 2026
Orbit: 962 x 1209 km, 28.3° (Epoch: 14 May)

Event Time Altitude Azimuth Distance (km) Brightness Sun altitude
Rises 14:56:20 0° 241° (WSW) 3,928 11.2 33.1°
Reaches altitude 10° 14:59:10 10° 240° (WSW) 2,930 10.7 32.4°
Maximum altitude 15:06:21 88° 150° (SSE) 1,039 8.2 30.7°
Drops below altitude 10° 15:13:03 10° 62° (ENE) 2,750 9.6 29.1°
Sets 15:15:39 0° 61° (ENE) 3,673 10.1 28.5°
